Other Public Products
Issued by NWS Grand Forks, ND

Home | Current Version | Previous Version | Text Only | Print | Product List | Glossary Off
Versions: 1 2 3 4 5 6 7 8 9 10 11 12 13 14 15 16 17 18 19 20 21 22 23 24 25 26 27 28 29 30 31 32 33 34 35 36 37 38 39 40 41 42 43 44 45 46 47 48 49 50

000
FPUS83 KFGF 261931
OPUFGF
PRAIRIE TO PINES WEATHER ROUNDUP
NATIONAL WEATHER SERVICE EASTERN NORTH DAKOTA/GRAND FORKS ND
200 PM CDT TUE MAY 26 2015

 **SATELLITE DATA USED TO AUGMENT SKY COVER AT AUTOMATED STATIONS**
 *****  WEATHER ACROSS EASTERN NORTH DAKOTA  *****

CITY           SKY/WX    TMP DP  RH WIND       PRES   REMARKS
GRAND FORKS    MOSUNNY   83  49  30 N5        29.76F
GRAND FORKS AF SUNNY     82  46  28 N7        29.76F
GRAND CITY NWS   N/A     77 N/A N/A NW6         N/A
BUXTON           N/A     81  58  46 S8          N/A
DEVILS LAKE    MOSUNNY   81  41  24 W18G24    29.80S
FARGO          PTSUNNY   74  57  55 S9        29.80F
WAHPETON ARPT  CLOUDY    70  50  49 NW3       29.83S
$$

 *****  WEATHER ACROSS CENTRAL AND WESTERN NORTH DAKOTA  *****

CITY           SKY/WX    TMP DP  RH WIND       PRES   REMARKS
JAMESTOWN      MOSUNNY   81  49  32 N12G18    29.81F
BISMARCK       SUNNY     79  48  33 NW10      29.89F
MINOT          MOSUNNY   81  43  26 NW13      29.85F
MINOT AFB      SUNNY     83  43  24 W12       29.84F
GARRISON         N/A     79  44  28 W12       29.88F
WILLISTON      SUNNY     78  39  24 SW10      29.91F
DICKINSON      SUNNY     75  41  29 SE9       29.92F
HETTINGER      SUNNY     72  47  40 SW7       29.96F
$$

 *****  OTHER OBSERVATIONS NORTHEAST NORTH DAKOTA  *****

CITY           SKY/WX    TMP DP  RH WIND       PRES   REMARKS
WALHALLA         N/A    N/A N/A N/A MISG        N/A
LANGDON        FAIR      82  39  21 NW14G21   29.79F
CAVALIER       FAIR      82  45  26 N3        29.75F
GRAFTON        FAIR      81  48  32 NE6G13    29.76F
CANDO          FAIR      84  37  18 NW10      29.80F
FORT TOTTEN      N/A     84  46  26 NW6       29.95
ROLLA            N/A     81  36  19 NW15      29.83F
RUGBY          NOT AVBL
 ***** THE ABOVE OBSERVATIONS ARE NON NWS ARE NOT QUALITY
        CONTROLLED AND MAY MIS-REPORT RAIN FOR SNOW...
$$

 *****  OTHER OBSERVATIONS SOUTHEAST NORTH DAKOTA *****

CITY           SKY/WX    TMP DP  RH WIND       PRES   REMARKS
COOPERSTOWN    NOT AVBL
VALLEY CITY    FAIR      79  50  36 CALM      29.81S
OAKES            N/A     73  59  60 CALM      29.83F
GWINNER        NOT AVBL
BUFFALO        NOT AVBL
WYNDMERE         N/A     72  55  56 S6          N/A
 ***** THE ABOVE OBSERVATIONS ARE NON NWS ARE NOT QUALITY
       CONTROLLED AND MAY MIS-REPORT RAIN FOR SNOW...
$$

  *****  WEATHER ACROSS NORTHERN MINNESOTA  *****

CITY           SKY/WX    TMP DP  RH WIND       PRES   REMARKS
FLAG ISLAND    SUNNY     66  52  59 SE9       29.76F
WARROAD        MOSUNNY   79  54  41 SW6       29.77F
ROSEAU         SUNNY     81  52  36 W8        29.77F
HALLOCK        SUNNY     81  46  30 CALM      29.75F
THF RVR FALLS  MOSUNNY   77  48  36 SW8       29.79F
HALSTAD          N/A     76  50  39 S12         N/A
FOSSTON        MOSUNNY   73  52  46 S7        29.81F
BAUDETTE       MOSUNNY   75  50  41 S8        29.79F
WASKISH        MOSUNNY   70  55  60 W3        29.81F
CROOKSTON      MOSUNNY   79  54  41 S12       29.78F
$$
  *****  WEATHER ACROSS CENTRAL AND WEST MINNESOTA  *****

CITY           SKY/WX    TMP DP  RH WIND       PRES   REMARKS
BEMIDJI        PTSUNNY   71  53  53 S6        29.82F
PARK RAPIDS    CLOUDY    73  50  44 CALM      29.82F
WADENA         CLOUDY    70  52  52 CALM      29.82S
DETROIT LAKES  PTSUNNY   72  52  49 CALM      29.83F
MOORHEAD       PTSUNNY   72  55  56 S8        29.82S
FERGUS FALLS   CLOUDY    72  54  53 CALM      29.82F
ELBOW LAKE     FAIR      71  54  54 SE5       29.83R
MORRIS MN      CLOUDY    72  54  53 NE9       29.81F
STAPLES        CLOUDY    70  52  52 E6        29.82F
WHEATON        CLOUDY    68  54  60 CALM      29.85S
$$
  *****  WEATHER ELSEWHERE ACROSS MINNESOTA  *****

CITY           SKY/WX    TMP DP  RH WIND       PRES   REMARKS
DULUTH         CLOUDY    62  53  72 E10       29.84F
INTRNTL FALLS  MOSUNNY   73  51  46 S8        29.81F
ELY            PTSUNNY   70  46  43 E3        29.82F
CLOQUET        CLOUDY    61  54  77 E7        29.83F
BRAINERD       CLOUDY    67  52  58 NE15      29.82F
HIBBING        CLOUDY    70  49  47 NE7       29.83F
ALEXANDRIA     CLOUDY    69  52  54 NE13      29.83F
SAINT CLOUD    CLOUDY    60  54  80 NE6       29.80F
MINNEAPOLIS    LGT RAIN  58  57  97 N8        29.78F
$$

  *****  WEATHER ACROSS SOUTH DAKOTA  *****

CITY           SKY/WX    TMP DP  RH WIND       PRES   REMARKS
SIOUX FALLS    CLOUDY    62  53  72 N12       29.83F
BROOKINGS      CLOUDY    64  52  63 N15       29.85F
WATERTOWN      CLOUDY    68  51  54 NE10      29.86S
HURON          PTSUNNY   76  54  46 VRB7G17   29.84F
SISSETON         N/A     72  52  49 CALM      29.83S
ABERDEEN       PTSUNNY   76  56  49 N8        29.85S
MITCHELL       PTSUNNY   70  53  54 N12       29.87S
PIERRE         SUNNY     74  51  44 NW14      29.91S
MOBRIDGE       SUNNY     76  54  46 NW12      29.88F
RAPID CITY     MOSUNNY   68  46  45 S8G20     29.98F
$$

  *****  SOME WEATHER IN NEARBY STATES *****

CITY           SKY/WX    TMP DP  RH WIND       PRES   REMARKS
GLASGOW MT     SUNNY     73  46  38 VRB6      29.89F
GREAT FALLS MT CLOUDY    60  49  66 N7        29.97S
CHEYENNE WY    HVY RAIN  52  43  71 W21G26    30.07R
SCOTTSBLUFF NE PTSUNNY   67  52  58 SE9       30.01S
OMAHA NE       LGT RAIN  66  63  90 S6        29.81S
DES MOINES IA  CLOUDY    69  61  75 W9        29.79F
DAVENPORT IA   PTSUNNY   73  61  65 SW30G39   29.74R
CHICAGO IL     LGT RAIN  69  65  86 SW18G24   29.79S
EAU CLAIRE WI  LGT RAIN  65  60  84 N7        29.73F
LA CROSSE WI   CLOUDY    69  60  73 NE12      29.67F
$$

  *****  SOME NATIONAL WEATHER *****

CITY           SKY/WX    TMP DP  RH WIND       PRES   REMARKS
LA GUARDIA NY  PTSUNNY   84  59  42 S16       30.16F
RALEIGH NC     MOSUNNY   86  66  51 S8        30.24F
ATLANTA GA     PTSUNNY   83  69  62 SE12      30.16F
NEW ORLEANS LA PTSUNNY   83  64  52 E5        30.08F
OKLAHOMA CITY  TSTM      72  62  71 S12G25    29.97R
ALBUQUERQUE NM PTSUNNY   69  42  37 CALM      30.13F
SALT LAKE CITY PTSUNNY   59  52  77 S18       30.04F
LOS ANGELES CA CLOUDY    63  56  78 W9        30.02R
BOISE ID       MOSUNNY   70  47  43 CALM      29.93F
SEATTLE WA     PTSUNNY   62  50  64 W6        30.06S
$$

*** WEATHER ACROSS MANITOBA...SASKATCHEWAN AND ONTARIO ***
                ***ONTARIO***

CITY           SKY/WX    TMP DP  RH WIND       PRES   REMARKS
GERALDTON      PTSUNNY   70  50  49 S3        29.83F
THUNDER BAY    CLOUDY    70  54  56 E8        29.83F
SIOUX LOOKOUT  PTSUNNY   75  50  41 S10       29.78F
TORONTO          N/A     84  64  51 S16G23    30.02F
BIG TROUT LK   SUNNY     55  36  47 E8        29.78F
PICKLE LAKE    MOSUNNY   77  39  25 S9        29.73F
DRYDEN         SUNNY     75  50  41 S12G18    29.78F
KENORA         MOSUNNY   73  52  46 W9        29.80S
$$
                *** MANITOBA***

CITY           SKY/WX    TMP DP  RH WIND       PRES   REMARKS
BRANDON        PTSUNNY   81  37  21 NW21G28   29.79F
DAUPHIN        MOSUNNY   84  41  21 NW12G26   29.75S
ISLAND LAKE    PTSUNNY   55  34  44 N9        29.79F
PILOT MOUND      N/A     82  37  20 NW13G18     N/A
THE PAS        PTSUNNY   50  37  62 N10       29.88R
THOMPSON       PTSUNNY   39  27  60 NE13      29.96S
WINNIPEG       MOSUNNY   82  46  28 W12G18    29.74F
LYNN LAKE      SUNNY     46  21  36 VRB7      29.95S
CHURCHILL      CLOUDY    30  23  74 N9        30.04F WCI  22
GILLAM         PTSUNNY   36  25  64 E5        29.99S
$$
                ***SASKATCHEWAN***

CITY           SKY/WX    TMP DP  RH WIND       PRES   REMARKS
ESTEVAN        PTSUNNY   81  39  22 W15G22    29.87F
KINDERSLEY     PTSUNNY   81  34  18 VRB10     29.87F
LLOYDMINSTER   MOSUNNY   75  45  33 N12G20    29.92S
PRINCE ALBERT  MOSUNNY   73  50  43 NE17      29.84
REGINA         PTSUNNY   81  37  21 NW13G21   29.85F
YORKTON        MOSUNNY   81  41  24 NW12G20   29.80F


USA.gov is the U.S. government's official web portal to all federal, state and local government web resources and services.